| time (UTC) | temp F | wind direction | speed MPH | gust MPH | rain 1hr in | rain 24hr in | rain mn in | humidity % | barometer mb |
| 20260504050750 | 50 | 259 | 5.0 | 7.0 | 0.00 | 0.00 | 0.00 | ||
| 20260504050603 | 50 | 259 | 5.0 | 7.0 | 0.00 | 0.00 | 0.00 | ||
| 20260504044554 | 49 | 170 | 0.0 | 0.0 | 0.00 | 0.00 | 0.00 | ||
| 20260504043549 | 49 | 273 | 2.0 | 2.0 | 0.00 | 0.00 | 0.00 | ||
| 20260504042544 | 49 | 225 | 3.0 | 2.0 | 0.00 | 0.00 | 0.00 | ||
| 20260504041539 | 48 | 229 | 3.0 | 3.0 | 0.00 | 0.00 | 0.00 | ||
| 20260504040529 | 48 | 153 | 0.0 | 0.0 | 0.00 | 0.00 | 0.00 | ||
| 20260504035520 | 48 | 153 | 0.0 | 0.0 | 0.00 | 0.00 | 0.00 | ||
| 20260504034507 | 49 | 153 | 0.0 | 0.0 | 0.00 | 0.00 | 0.00 | ||
| 20260504033457 | 49 | 236 | 0.0 | 0.0 | 0.00 | 0.00 | 0.00 | ||
| 20260504032450 | 48 | 236 | 0.0 | 0.0 | 0.00 | 0.00 | 0.00 | ||
| 20260504031444 | 49 | 236 | 0.0 | 0.0 | 0.00 | 0.00 | 0.00 | ||
| 20260504030438 | 47 | 236 | 0.0 | 0.0 | 0.00 | 0.00 | 0.00 | ||
| 20260504025432 | 47 | 236 | 0.0 | 0.0 | 0.00 | 0.00 | 0.00 | ||
| 20260504024421 | 50 | 236 | 0.0 | 0.0 | 0.00 | 0.00 | 0.00 | ||
| 20260504023414 | 48 | 236 | 0.0 | 0.0 | 0.00 | 0.00 | 0.00 | ||
| 20260504022405 | 48 | 236 | 0.0 | 0.0 | 0.00 | 0.00 | 0.00 | ||
| 20260504021341 | 49 | 236 | 0.0 | 0.0 | 0.00 | 0.00 | 0.00 | ||
| 20260504020337 | 48 | 236 | 0.0 | 0.0 | 0.00 | 0.00 | 0.00 | ||
| 20260504015329 | 49 | 236 | 0.0 | 0.0 | 0.00 | 0.00 | 0.00 | ||
| 20260504014322 | 49 | 236 | 0.0 | 0.0 | 0.00 | 0.00 | 0.00 | ||
| 20260504011303 | 51 | 236 | 0.0 | 0.0 | 0.00 | 0.00 | 0.00 | ||
| 20260504010246 | 51 | 236 | 0.0 | 0.0 | 0.00 | 0.00 | 0.00 | ||
| 20260504005232 | 51 | 236 | 0.0 | 0.0 | 0.00 | 0.00 | 0.00 | ||
| 20260504004213 | 51 | 236 | 0.0 | 0.0 | 0.00 | 0.00 | 0.00 | ||
| 20260504003207 | 51 | 236 | 0.0 | 0.0 | 0.00 | 0.00 | 0.00 | ||
| 20260504002157 | 52 | 236 | 0.0 | 0.0 | 0.00 | 0.00 | 0.00 | ||
| 20260504001150 | 54 | 269 | 0.0 | 0.0 | 0.00 | 0.00 | 0.00 | ||
| 20260504000148 | 55 | 269 | 0.0 | 0.0 | 0.00 | 0.00 | 0.00 | ||
| 20260503235136 | 57 | 210 | 0.0 | 0.0 | 0.00 | 0.00 | 0.00 | ||
| 20260503234128 | 57 | 262 | 0.0 | 0.0 | 0.00 | 0.00 | 0.00 | ||
| 20260503233122 | 58 | 252 | 0.0 | 2.0 | 0.00 | 0.00 | 0.00 | ||
| 20260503232115 | 58 | 243 | 2.0 | 3.0 | 0.00 | 0.00 | 0.00 | ||
| 20260503231108 | 59 | 307 | 0.0 | 2.0 | 0.00 | 0.00 | 0.00 | ||
| 20260503230059 | 60 | 274 | 1.0 | 2.0 | 0.00 | 0.00 | 0.00 | ||
| 20260503225052 | 61 | 23 | 4.0 | 1.0 | 0.00 | 0.00 | 0.00 | ||
| 20260503224046 | 63 | 304 | 1.0 | 0.0 | 0.00 | 0.00 | 0.00 | ||
| 20260503223038 | 63 | 240 | 6.0 | 6.0 | 0.00 | 0.00 | 0.00 | ||
| 20260503222032 | 64 | 307 | 5.0 | 5.0 | 0.00 | 0.00 | 0.00 | ||
| 20260503221027 | 65 | 295 | 3.0 | 4.0 | 0.00 | 0.00 | 0.00 | ||
| 20260503220024 | 65 | 280 | 3.0 | 4.0 | 0.00 | 0.00 | 0.00 | ||
| 20260503214002 | 66 | 295 | 3.0 | 2.0 | 0.00 | 0.00 | 0.00 | ||
| 20260503213002 | 65 | 267 | 2.0 | 4.0 | 0.00 | 0.00 | 0.00 | ||
| 20260503211956 | 66 | 280 | 4.0 | 5.0 | 0.00 | 0.00 | 0.00 | ||
| 20260503210951 | 66 | 343 | 1.0 | 3.0 | 0.00 | 0.00 | 0.00 | ||
| 20260503205944 | 64 | 280 | 5.0 | 3.0 | 0.00 | 0.00 | 0.00 | ||
| 20260503204934 | 66 | 333 | 4.0 | 4.0 | 0.00 | 0.00 | 0.00 | ||
| 20260503203930 | 66 | 255 | 3.0 | 8.0 | 0.00 | 0.00 | 0.00 | ||
| 20260503202927 | 66 | 345 | 6.0 | 2.0 | 0.00 | 0.00 | 0.00 | ||
| 20260503201923 | 65 | 233 | 6.0 | 7.0 | 0.00 | 0.00 | 0.00 | ||
| 20260503200916 | 65 | 352 | 6.0 | 5.0 | 0.00 | 0.00 | 0.00 | ||
| 20260503195913 | 66 | 308 | 2.0 | 5.0 | 0.00 | 0.00 | 0.00 | ||
| 20260503194907 | 64 | 277 | 7.0 | 9.0 | 0.00 | 0.00 | 0.00 | ||
| 20260503193903 | 65 | 297 | 5.0 | 10.0 | 0.00 | 0.00 | 0.00 | ||
| 20260503192900 | 65 | 336 | 5.0 | 7.0 | 0.00 | 0.00 | 0.00 | ||
| 20260503191848 | 64 | 269 | 9.0 | 3.0 | 0.00 | 0.00 | 0.00 | ||
| 20260503190837 | 65 | 285 | 7.0 | 11.0 | 0.00 | 0.00 | 0.00 | ||
| 20260503185831 | 63 | 281 | 5.0 | 5.0 | 0.00 | 0.00 | 0.00 | ||
| 20260503184827 | 65 | 293 | 7.0 | 6.0 | 0.00 | 0.00 | 0.00 | ||
| 20260503183823 | 64 | 322 | 8.0 | 8.0 | 0.00 | 0.00 | 0.00 | ||
| 20260503182818 | 64 | 273 | 7.0 | 5.0 | 0.00 | 0.00 | 0.00 | ||
| 20260503181812 | 64 | 352 | 3.0 | 0.0 | 0.00 | 0.00 | 0.00 | ||
| 20260503180806 | 63 | 319 | 6.0 | 7.0 | 0.00 | 0.00 | 0.00 | ||
| 20260503175801 | 63 | 301 | 4.0 | 2.0 | 0.00 | 0.00 | 0.00 | ||
| 20260503174758 | 62 | 255 | 9.0 | 7.0 | 0.00 | 0.00 | 0.00 | ||
| 20260503173750 | 61 | 287 | 6.0 | 7.0 | 0.00 | 0.00 | 0.00 | ||
| 20260503172747 | 62 | 269 | 7.0 | 3.0 | 0.00 | 0.00 | 0.00 | ||
| 20260503171744 | 60 | 21 | 5.0 | 6.0 | 0.00 | 0.00 | 0.00 | ||
| 20260503170740 | 58 | 13 | 6.0 | 4.0 | 0.00 | 0.00 | 0.00 | ||
| 20260503150629 | 58 | 333 | 3.0 | 2.0 | 0.00 | 0.00 | 0.00 | ||
| 20260503130528 | 50 | 321 | 7.0 | 6.0 | 0.00 | 0.00 | 0.00 | ||
| 20260503110418 | 45 | 3 | 6.0 | 6.0 | 0.00 | 0.00 | 0.00 | ||
| 20260503090325 | 43 | 359 | 3.0 | 2.0 | 0.00 | 0.00 | 0.00 | ||
| 20260503081244 | 45 | 359 | 3.0 | 7.0 | 0.00 | 0.00 | 0.00 | ||
| 20260503080238 | 44 | 270 | 2.0 | 3.0 | 0.00 | 0.00 | 0.00 |